User: anonymous   Login
Location: Bretagne
(43.8474°N, 0.4650°W)
Time: 12:33:48
(UTC+00:00)
Language:

Meteor 1-12 Rocket - Orbit

View from above orbital plane
View from above orbital plane
View from above satellite
View from above satellite

Ground track
Ground track

The orbit is defined by the following mean orbital elements,

1 06080U          26066.20380894 +.00000000 +00000-0 +19198-4 0 00003
2 06080  81.2421 170.7995 0048502 350.9513   9.0774 14.01289777    00
Epoch (UTC): 07 March 2026 04:53:29
Eccentricity: 0.0048502
inclination: 81.2421°
perigee height: 854 km
apogee height: 925 km
right ascension of ascending node: 170.7995°
argument of perigee: 350.9513°
revolutions per day: 14.01289777
mean anomaly at epoch: 9.0774°

The dashed part of the orbit path shows where the satellite is in the earth's shadow,  

DLR